Total_Precipitation_Accumulation
0.00 0.00 0.00 0.00 0.00 0.00 0.00 0.00 0.02 0.02 0.03 0.01 0.00 0.00 0.00 0.00 0.00 0.00 0.00 0.00 0.00 0.00 0.01 0.01 0.01 0.01 0.02 0.02 0.02 0.03 0.03 0.04 0.04 0.04 0.05 0.05 0.05 0.04 0.04 0.04 0.05 0.08 0.10 0.10
0.00 0.00 0.00 0.00 0.00 0.00 0.00 0.00 0.00 0.00 0.00 0.00 0.00 0.01 0.02 0.02 0.01 0.02 0.02 0.03 0.04 0.04 0.05 0.04 0.04 0.04 0.03 0.03 0.03 0.04 0.04 0.03 0.03 0.03 0.03 0.03 0.03 0.03 0.03 0.03 0.05 0.09 0.12 0.12
0.00 0.00 0.01 0.04 0.01 0.00 0.00 0.00 0.00 0.01 0.02 0.02 0.03 0.05 0.08 0.11 0.12 0.13 0.12 0.10 0.07 0.05 0.03 0.02 0.01 0.01 0.00 0.00 0.00 0.01 0.01 0.02 0.02 0.02 0.02 0.02 0.02 0.02 0.03 0.03 0.05 0.09 0.12 0.14
0.00 0.00 0.03 0.03 0.00 0.00 0.00 0.00 0.01 0.03 0.05 0.09 0.12 0.17 0.23 0.27 0.21 0.11 0.06 0.03 0.01 0.00 0.00 0.00 0.00 0.00 0.00 0.00 0.00 0.00 0.00 0.01 0.01 0.02 0.02 0.03 0.04 0.05 0.06 0.07 0.07 0.10 0.14 0.16
0.00 0.00 0.02 0.00 0.00 0.01 0.02 0.02 0.04 0.10 0.15 0.18 0.18 0.13 0.09 0.06 0.03 0.01 0.01 0.00 0.00 0.00 0.00 0.00 0.00 0.00 0.00 0.00 0.00 0.00 0.01 0.03 0.05 0.05 0.06 0.07 0.08 0.10 0.12 0.13 0.12 0.12 0.14 0.17
0.00 0.00 0.01 0.01 0.02 0.06 0.07 0.12 0.13 0.12 0.09 0.05 0.02 0.01 0.00 0.00 0.00 0.00 0.00 0.00 0.00 0.00 0.00 0.00 0.00 0.00 0.00 0.00 0.00 0.00 0.01 0.03 0.05 0.08 0.10 0.10 0.12 0.14 0.16 0.17 0.17 0.16 0.15 0.17
0.00 0.00 0.00 0.00 0.01 0.03 0.05 0.07 0.03 0.01 0.01 0.00 0.00 0.00 0.00 0.00 0.00 0.00 0.00 0.00 0.00 0.00 0.00 0.00 0.00 0.00 0.01 0.01 0.01 0.01 0.02 0.02 0.03 0.07 0.12 0.14 0.16 0.19 0.20 0.21 0.23 0.24 0.22 0.21
0.00 0.01 0.01 0.00 0.00 0.00 0.00 0.00 0.00 0.00 0.00 0.00 0.00 0.00 0.00 0.00 0.00 0.00 0.00 0.00 0.00 0.00 0.00 0.00 0.00 0.01 0.03 0.03 0.03 0.03 0.04 0.05 0.06 0.10 0.15 0.15 0.19 0.22 0.25 0.27 0.31 0.32 0.34 0.33
0.00 0.01 0.00 0.00 0.00 0.00 0.00 0.00 0.00 0.00 0.00 0.00 0.00 0.00 0.00 0.00 0.00 0.00 0.00 0.00 0.00 0.00 0.00 0.00 0.01 0.03 0.04 0.04 0.04 0.05 0.06 0.08 0.10 0.13 0.22 0.32 0.31 0.27 0.28 0.30 0.31 0.34 0.39 0.43
0.00 0.00 0.00 0.00 0.00 0.00 0.00 0.00 0.00 0.00 0.00 0.00 0.00 0.00 0.00 0.00 0.00 0.00 0.00 0.00 0.00 0.00 0.01 0.02 0.03 0.04 0.05 0.06 0.08 0.09 0.10 0.10 0.12 0.16 0.27 0.48 0.54 0.44 0.36 0.33 0.34 0.38 0.39 0.41
0.00 0.00 0.00 0.00 0.00 0.00 0.00 0.00 0.00 0.00 0.00 0.00 0.00 0.00 0.00 0.00 0.00 0.00 0.00 0.00 0.01 0.02 0.03 0.03 0.04 0.05 0.06 0.09 0.13 0.14 0.14 0.13 0.13 0.17 0.27 0.46 0.58 0.56 0.48 0.44 0.42 0.42 0.42 0.41
0.00 0.00 0.00 0.00 0.00 0.00 0.00 0.00 0.00 0.00 0.00 0.00 0.00 0.00 0.00 0.00 0.00 0.00 0.01 0.01 0.02 0.04 0.06 0.06 0.08 0.09 0.09 0.12 0.17 0.20 0.19 0.18 0.18 0.19 0.25 0.42 0.60 0.65 0.52 0.43 0.42 0.41 0.36 0.34
0.00 0.00 0.00 0.00 0.00 0.00 0.00 0.00 0.00 0.00 0.00 0.00 0.00 0.00 0.00 0.00 0.01 0.01 0.02 0.05 0.08 0.11 0.14 0.15 0.16 0.14 0.12 0.16 0.21 0.24 0.24 0.22 0.21 0.20 0.21 0.31 0.53 0.74 0.75 0.55 0.44 0.38 0.29 0.20
0.00 0.00 0.00 0.00 0.00 0.00 0.00 0.00 0.00 0.00 0.00 0.00 0.00 0.00 0.00 0.01 0.02 0.03 0.07 0.13 0.19 0.23 0.23 0.23 0.21 0.16 0.15 0.20 0.23 0.24 0.23 0.21 0.19 0.18 0.18 0.25 0.44 0.69 0.86 0.80 0.65 0.48 0.29 0.14
0.00 0.00 0.00 0.00 0.00 0.00 0.00 0.00 0.00 0.00 0.00 0.00 0.00 0.00 0.01 0.02 0.04 0.08 0.14 0.25 0.35 0.35 0.30 0.27 0.22 0.17 0.17 0.21 0.22 0.21 0.21 0.19 0.17 0.17 0.17 0.20 0.36 0.59 0.78 0.85 0.78 0.69 0.44 0.17
0.00 0.00 0.00 0.00 0.00 0.00 0.00 0.00 0.00 0.00 0.00 0.00 0.00 0.01 0.01 0.04 0.08 0.12 0.21 0.36 0.52 0.53 0.42 0.32 0.26 0.21 0.20 0.21 0.20 0.19 0.17 0.12 0.11 0.13 0.14 0.17 0.27 0.48 0.70 0.83 0.78 0.73 0.56 0.23
0.00 0.00 0.00 0.00 0.00 0.00 0.00 0.00 0.00 0.00 0.00 0.00 0.01 0.02 0.04 0.09 0.15 0.22 0.34 0.44 0.50 0.48 0.41 0.37 0.31 0.24 0.21 0.20 0.19 0.18 0.15 0.11 0.06 0.08 0.13 0.18 0.25 0.42 0.63 0.78 0.72 0.65 0.54 0.25
0.00 0.00 0.00 0.00 0.00 0.00 0.00 0.00 0.00 0.00 0.01 0.02 0.05 0.05 0.08 0.16 0.28 0.44 0.56 0.60 0.54 0.41 0.35 0.35 0.30 0.22 0.19 0.16 0.13 0.13 0.12 0.12 0.11 0.12 0.17 0.20 0.26 0.41 0.59 0.70 0.63 0.57 0.46 0.22
0.00 0.00 0.00 0.00 0.00 0.00 0.00 0.00 0.00 0.01 0.02 0.06 0.08 0.07 0.09 0.17 0.31 0.50 0.61 0.72 0.74 0.58 0.39 0.29 0.22 0.18 0.14 0.10 0.08 0.09 0.09 0.09 0.11 0.14 0.17 0.17 0.27 0.42 0.55 0.59 0.52 0.45 0.33 0.15
0.00 0.00 0.00 0.00 0.00 0.00 0.00 0.00 0.00 0.01 0.04 0.09 0.09 0.07 0.09 0.15 0.31 0.51 0.63 0.73 0.77 0.68 0.49 0.32 0.20 0.14 0.08 0.05 0.05 0.07 0.09 0.10 0.12 0.15 0.18 0.22 0.32 0.44 0.48 0.47 0.38 0.28 0.18 0.09
0.00 0.00 0.00 0.00 0.00 0.00 0.00 0.00 0.00 0.02 0.06 0.09 0.07 0.06 0.09 0.16 0.27 0.48 0.76 0.92 0.80 0.65 0.50 0.35 0.23 0.12 0.06 0.03 0.04 0.07 0.09 0.11 0.15 0.19 0.22 0.26 0.33 0.39 0.38 0.32 0.22 0.15 0.09 0.05
0.00 0.00 0.00 0.00 0.00 0.00 0.00 0.00 0.00 0.02 0.05 0.06 0.05 0.06 0.11 0.18 0.28 0.40 0.58 0.86 0.92 0.82 0.58 0.38 0.25 0.12 0.06 0.04 0.04 0.06 0.08 0.10 0.14 0.19 0.20 0.21 0.25 0.26 0.24 0.17 0.10 0.07 0.04 0.03
0.00 0.00 0.00 0.00 0.00 0.00 0.00 0.00 0.00 0.01 0.02 0.04 0.04 0.06 0.11 0.19 0.32 0.54 0.66 0.66 0.75 0.84 0.62 0.39 0.28 0.18 0.09 0.05 0.06 0.07 0.07 0.11 0.18 0.19 0.16 0.16 0.15 0.15 0.13 0.09 0.05 0.03 0.03 0.03
0.00 0.00 0.00 0.00 0.00 0.00 0.00 0.00 0.00 0.00 0.00 0.01 0.02 0.03 0.07 0.15 0.23 0.36 0.53 0.61 0.64 0.69 0.52 0.35 0.26 0.19 0.13 0.09 0.09 0.11 0.17 0.24 0.24 0.18 0.13 0.11 0.11 0.10 0.08 0.06 0.03 0.03 0.04 0.04
0.00 0.00 0.00 0.00 0.00 0.00 0.00 0.00 0.00 0.00 0.00 0.00 0.01 0.01 0.02 0.07 0.18 0.28 0.38 0.45 0.58 0.64 0.52 0.38 0.28 0.24 0.20 0.17 0.17 0.24 0.31 0.27 0.19 0.14 0.11 0.09 0.09 0.09 0.06 0.03 0.03 0.04 0.05 0.04
0.00 0.00 0.00 0.00 0.00 0.00 0.00 0.00 0.00 0.00 0.00 0.00 0.01 0.01 0.02 0.03 0.06 0.13 0.22 0.29 0.40 0.53 0.47 0.33 0.21 0.19 0.20 0.21 0.23 0.25 0.24 0.19 0.14 0.12 0.12 0.11 0.09 0.07 0.05 0.04 0.03 0.03 0.03 0.02
0.00 0.00 0.00 0.00 0.00 0.00 0.00 0.00 0.00 0.00 0.00 0.00 0.01 0.02 0.03 0.03 0.04 0.07 0.11 0.17 0.24 0.28 0.27 0.20 0.12 0.11 0.11 0.12 0.12 0.12 0.12 0.13 0.12 0.12 0.12 0.12 0.10 0.08 0.05 0.02 0.02 0.02 0.01 0.01